Location: Warwick
(41.7000°N, 71.4170°W)
Time: 12:49:56
(UTC-05:00)

BREEZE-M DEB (TANK) - Visible Passes

Search period start: 22 December 2014 00:00
Search period end: 01 January 2015 00:00
Orbit: 302 x 16003 km, 49.5° (Epoch: 21 December)

Date Brightness Start Highest point End Pass type
(mag) Time Alt. Az. Time Alt. Az. Time Alt. Az.
22 Dec 6.9 06:24:26 10° S 06:35:59 54° ESE 07:48:42 10° NE visible
22 Dec 9.4 16:47:58 10° NW 18:08:35 40° W 19:47:36 10° SW visible
23 Dec 9.5 17:03:15 10° NW 18:19:46 35° W 19:55:55 10° SW visible
24 Dec 9.7 17:18:50 10° NW 18:30:43 31° W 20:02:54 10° SW visible
25 Dec 9.7 17:34:50 10° NW 18:41:28 28° W 20:08:12 10° WSW visible
26 Dec 9.8 17:51:26 10° NW 18:52:02 24° WNW 20:11:23 10° WSW visible
27 Dec 9.9 18:08:59 10° NW 19:02:25 20° WNW 20:11:54 10° W visible
28 Dec 10.0 18:28:08 10° NW 19:12:38 17° WNW 20:09:00 10° W visible
29 Dec 10.1 18:50:45 10° WNW 19:22:41 13° WNW 20:00:51 10° W visible
30 Dec 7.7 03:23:23 10° E 03:25:19 10° ENE 03:27:31 10° ENE visible
31 Dec 7.4 03:29:44 10° ESE 03:36:45 14° E 03:49:39 10° ENE visible
31 Dec 8.6 13:31:00 10° WNW 14:50:52 71° WSW 16:53:39 10° S visible
